Location: Dallas
(32.7833°N, 96.8000°W)
Time: 00:47:58
(UTC-06:00)

Envisat - Pass Details

Date: 30 January 2021
Orbit: 764 x 766 km, 98.1° (Epoch: 04 March)

Event Time Altitude Azimuth Distance (km) Brightness Sun altitude
Rises 05:32:28 0° 22° (NNE) 3,234 6.4 -23.4°
Reaches altitude 10° 05:34:56 10° 30° (NNE) 2,304 5.7 -22.9°
Maximum altitude 05:39:38 38° 98° (E) 1,162 4.5 -21.9°
Drops below altitude 10° 05:44:18 10° 166° (SSE) 2,290 5.7 -21.0°
Sets 05:46:45 0° 174° (S) 3,212 6.4 -20.5°
